Powrót do katalogu

COSMOS 1579 COOLANT

LostLEO
NORAD 27909·DEBRIS·🇷🇺 Russia

Wystrzelony Jun 29, 1984 z Baikonur Cosmodrome

Loading…

Następne Przeloty (najbliższe 24 godziny)

TLE

NieaktualneSource: Space-Track

Epoka: Aug 8, 2023, 03:58 UTC

1 27909U 84069AB  23220.16549150  .00000149  00000-0  18615-3 0  9992
2 27909  65.0491  57.7774 0044077 343.4450  16.5172 13.91752479506771

Śledź COSMOS 1579 COOLANT w czasie rzeczywistym z AllMySat

Download on the App Store